Fremont, MI

11:32 PM EDT on September 22, 2019 (GMT -0400)
Fremont

Weather History for KFFX - July, 2019

Change the Weather History Date:

Monday, July 29, 2019

  Actual Average (KMKG) Record (KMKG)
Temperature  
Mean Temperature 72 °F -  
Max Temperature 79 °F 79 °F 95 °F (1916)
Min Temperature 65 °F 59 °F 48 °F (1952)
Cooling Degree Days 7    
Growing Degree Days 22 (Base 50)    
Moisture  
Dew Point 66 °F    
Average Humidity 76    
Maximum Humidity 100    
Minimum Humidity 60    
Precipitation  
Precipitation 0.00 in - - ()
Sea Level Pressure  
Sea Level Pressure 29.84 in    
Wind  
Wind Speed 10 mph (WSW)    
Max Wind Speed 18 mph    
Max Gust Speed 24 mph    
Visibility 9 miles    
Events Rain    
Averages and records for this station are not official NWS values.
T = Trace of Precipitation, MM = Missing Value Source: NWS Daily Summary

Daily Weather History Graph

Daily Weather History Graph

Search for Another Location

Airport or City:

Astronomy

Jul. 29, 2019 Rise Set
Actual Time 6:30 AM EDT 9:09 PM EDT
Civil Twilight 5:57 AM EDT 9:42 PM EDT
Nautical Twilight 5:15 AM EDT 10:23 PM EDT
Astronomical Twilight 4:28 AM EDT 11:11 PM EDT
Moon 3:40 AM EDT (7/29) 7:15 PM EDT (7/29)
Length of Visible Light 15h 45m
Length of Day
14h 39m
Waning Crescent, 8% of the Moon is Illuminated
Jul 29
Waning Crescent
Jul 31
New
Aug 7
First Quarter
Aug 15
Full
Aug 23
Last Quarter

Hourly Weather History & Observations

Time (EDT) Temp. Dew Point Humidity Pressure Visibility Wind Dir Wind Speed Gust Speed Precip Events Conditions
8:17 AM 74.8 °F 65.3 °F 72% 29.84 in 10.0 mi SSW 11.5 mph 17.3 mph N/A   Mostly Cloudy
8:35 AM 75.2 °F 65.3 °F 71% 29.83 in 10.0 mi SSW 10.4 mph 17.3 mph N/A   Mostly Cloudy
8:55 AM 75.4 °F 65.7 °F 72% 29.83 in 10.0 mi SSW 12.7 mph 19.6 mph N/A   Scattered Clouds
8:56 AM 75.4 °F 65.5 °F 71% 29.83 in 10.0 mi SW 12.7 mph 19.6 mph N/A   Scattered Clouds
9:15 AM 76.8 °F 66.0 °F 69% 29.83 in 10.0 mi SW 12.7 mph 18.4 mph N/A   Clear
9:19 AM 77.5 °F 66.2 °F 68% 29.83 in 10.0 mi SW 11.5 mph 16.1 mph N/A   Clear
9:38 AM 77.2 °F 66.2 °F 69% 29.83 in 10.0 mi SW 15.0 mph 21.9 mph N/A   Mostly Cloudy
9:56 AM 76.6 °F 66.2 °F 70% 29.84 in 10.0 mi SW 13.8 mph 21.9 mph N/A   Mostly Cloudy
10:15 AM 74.5 °F 67.5 °F 79% 29.84 in 10.0 mi SW 11.5 mph 20.7 mph N/A   Mostly Cloudy
10:35 AM 75.2 °F 66.9 °F 75% 29.83 in 10.0 mi SW 12.7 mph 19.6 mph N/A   Scattered Clouds
10:36 AM 75.2 °F 66.9 °F 75% 29.83 in 10.0 mi SW 12.7 mph 19.6 mph N/A   Scattered Clouds
10:59 AM 77.0 °F 66.2 °F 69% 29.83 in 10.0 mi West 10.4 mph 19.6 mph N/A   Scattered Clouds
11:17 AM 76.6 °F 65.7 °F 69% 29.83 in 10.0 mi West 10.4 mph - N/A   Scattered Clouds
11:35 AM 77.2 °F 64.9 °F 66% 29.84 in 10.0 mi WSW 11.5 mph 19.6 mph N/A   Clear
11:36 AM 77.2 °F 64.9 °F 66% 29.84 in 10.0 mi WSW 12.7 mph 19.6 mph N/A   Clear
11:55 AM 76.1 °F 64.8 °F 68% 29.84 in 10.0 mi WSW 13.8 mph 18.4 mph N/A   Mostly Cloudy
12:15 PM 76.5 °F 65.3 °F 68% 29.84 in 5.0 mi WSW 11.5 mph - N/A   Haze
12:38 PM 77.9 °F 64.9 °F 64% 29.84 in 10.0 mi WSW 12.7 mph 17.3 mph N/A   Scattered Clouds
12:56 PM 76.6 °F 65.5 °F 68% 29.84 in 10.0 mi SW 15.0 mph 21.9 mph N/A   Overcast
1:15 PM 76.3 °F 64.8 °F 67% 29.85 in 10.0 mi SW 18.4 mph 24.2 mph N/A   Overcast
1:16 PM 76.3 °F 64.8 °F 67% 29.85 in 10.0 mi SW 18.4 mph 24.2 mph N/A   Overcast
1:35 PM 75.4 °F 65.5 °F 71% 29.84 in 10.0 mi WSW 12.7 mph 20.7 mph N/A   Overcast
1:36 PM 75.4 °F 65.5 °F 71% 29.84 in 10.0 mi WSW 11.5 mph 20.7 mph N/A   Overcast
1:59 PM 74.3 °F 66.9 °F 78% 29.83 in 10.0 mi WSW 11.5 mph 21.9 mph N/A Rain Heavy Rain
2:17 PM 72.5 °F 70.7 °F 94% 29.83 in 10.0 mi WSW 9.2 mph - N/A Rain Light Rain
2:35 PM 73.4 °F 70.0 °F 89% 29.83 in 10.0 mi WSW 10.4 mph 21.9 mph N/A   Overcast
2:55 PM 72.7 °F 70.7 °F 93% 29.82 in 4.0 mi WSW 8.1 mph 16.1 mph N/A Rain Rain
2:56 PM 72.7 °F 70.7 °F 93% 29.82 in 4.0 mi WSW 9.2 mph 16.1 mph N/A Rain Rain
3:15 PM 72.0 °F 71.2 °F 98% 29.83 in 7.0 mi WSW 9.2 mph - N/A   Overcast
3:20 PM 72.7 °F 71.6 °F 96% 29.82 in 10.0 mi WSW 9.2 mph 16.1 mph N/A   Overcast
3:38 PM 73.8 °F 71.6 °F 93% 29.82 in 10.0 mi WSW 9.2 mph - N/A   Mostly Cloudy
3:56 PM 75.0 °F 70.7 °F 86% 29.82 in 10.0 mi SW 11.5 mph - N/A   Mostly Cloudy
4:15 PM 75.2 °F 70.2 °F 84% 29.82 in 10.0 mi WSW 9.2 mph - N/A   Mostly Cloudy
4:35 PM 75.4 °F 68.5 °F 79% 29.83 in 10.0 mi WSW 8.1 mph - N/A   Overcast
4:59 PM 77.9 °F 68.0 °F 71% 29.83 in 10.0 mi WSW 9.2 mph - N/A   Mostly Cloudy
5:17 PM 77.4 °F 66.2 °F 68% 29.83 in 10.0 mi WSW 10.4 mph - N/A   Mostly Cloudy
5:35 PM 78.4 °F 65.8 °F 65% 29.82 in 10.0 mi West 9.2 mph 17.3 mph N/A   Mostly Cloudy
5:36 PM 78.6 °F 65.5 °F 64% 29.82 in 10.0 mi West 6.9 mph 17.3 mph N/A   Mostly Cloudy
5:55 PM 78.6 °F 64.6 °F 62% 29.83 in 10.0 mi West 9.2 mph 16.1 mph N/A   Mostly Cloudy
6:15 PM 79.0 °F 64.2 °F 60% 29.83 in 10.0 mi West 10.4 mph - N/A   Mostly Cloudy
6:38 PM 78.3 °F 63.9 °F 61% 29.83 in 10.0 mi WNW 10.4 mph - N/A   Scattered Clouds
6:56 PM 77.0 °F 63.5 °F 63% 29.83 in 10.0 mi WNW 11.5 mph 17.3 mph N/A   Scattered Clouds
7:15 PM 77.4 °F 63.3 °F 62% 29.84 in 10.0 mi WNW 12.7 mph - N/A   Mostly Cloudy
7:16 PM 77.2 °F 63.5 °F 63% 29.84 in 10.0 mi WNW 12.7 mph - N/A   Mostly Cloudy
7:35 PM 76.6 °F 63.5 °F 64% 29.85 in 10.0 mi West 6.9 mph - N/A   Scattered Clouds
7:59 PM 76.1 °F 62.2 °F 62% 29.85 in 10.0 mi West 4.6 mph - N/A   Clear
8:17 PM 75.2 °F 62.4 °F 64% 29.85 in 10.0 mi West 4.6 mph - N/A   Clear
8:35 PM 74.3 °F 63.0 °F 68% 29.85 in 10.0 mi Calm Calm - N/A   Clear
8:36 PM 74.3 °F 63.1 °F 68% 29.85 in 10.0 mi West 3.5 mph - N/A   Clear
8:55 PM 72.7 °F 63.9 °F 74% 29.86 in 10.0 mi West 3.5 mph - N/A   Clear
8:56 PM 72.5 °F 63.9 °F 74% 29.86 in 10.0 mi West 3.5 mph - N/A   Clear
9:15 PM 71.2 °F 64.6 °F 79% 29.86 in 10.0 mi WSW 3.5 mph - N/A   Clear
9:20 PM 70.3 °F 65.3 °F 84% 29.86 in 10.0 mi WSW 4.6 mph - N/A   Clear
9:38 PM 69.1 °F 66.2 °F 91% 29.86 in 10.0 mi SW 3.5 mph - N/A   Clear
9:56 PM 68.5 °F 66.4 °F 93% 29.87 in 10.0 mi Calm Calm - N/A   Clear
10:15 PM 68.2 °F 66.4 °F 94% 29.88 in 10.0 mi SSW 3.5 mph - N/A   Clear
10:59 PM 67.1 °F 66.9 °F 99% 29.88 in 10.0 mi Calm Calm - N/A   Clear
11:17 PM 67.1 °F 67.1 °F 100% 29.88 in 7.0 mi SSW 3.5 mph - N/A   Clear
11:35 PM 65.7 °F 65.7 °F 100% 29.89 in 5.0 mi SSW 4.6 mph - N/A   Clear
11:55 PM 65.3 °F 65.3 °F 100% 29.89 in 4.0 mi SW 4.6 mph - N/A   Clear
11:56 PM 65.3 °F 65.3 °F 100% 29.89 in 4.0 mi SW 4.6 mph - N/A   Clear